GW4463 Weather Reports


time (UTC)temp
C
wind
direction
speed
KPH
gust
KPH
rain 1hr
cm
rain 24hr
cm
rain mn
cm
humidity
%
barometer
mb
20260508122540 13 90 3.2 3.2 0.00 0.00 0.00 73 1018.9
20260508122018 13 112 8.0 8.0 0.00 0.00 0.00 72 1018.9
20260508121221 13 90 3.2 3.2 0.00 0.00 0.00 72 1018.9
20260508120659 13 90 9.7 9.7 0.00 0.00 0.00 78 1018.9
20260508120137 13 90 8.0 8.0 0.00 0.00 0.00 75 1018.9
20260508115615 13 112 9.7 9.7 0.00 0.00 0.00 72 1018.9
20260508115052 13 90 4.8 4.8 0.00 0.00 0.00 72 1019.0
20260508114530 13 112 1.6 1.6 0.00 0.00 0.00 72 1018.9
20260508114008 13 112 6.4 6.4 0.00 0.00 0.00 70 1018.9
20260508113446 14 90 4.8 6.4 0.00 0.00 0.00 69 1018.8
20260508112924 15 135 0.0 0.0 0.00 0.00 0.00 68 1018.8
20260508112402 15 112 9.7 9.7 0.00 0.00 0.00 66 1018.7
20260508111838 16 158 0.0 0.0 0.00 0.00 0.00 65 1018.6
20260508111316 16 202 0.0 0.0 0.00 0.00 0.00 65 1018.6
20260508110754 16 292 0.0 0.0 0.00 0.00 0.00 67 1018.5
20260508105956 16 292 0.0 0.0 0.00 0.00 0.00 65 1018.5
20260508104926 16 112 6.4 6.4 0.00 0.00 0.00 64 1018.5
20260508104130 15 68 3.2 3.2 0.00 0.00 0.00 66 1018.6
20260508103608 15 90 8.0 8.0 0.00 0.00 0.00 66 1018.5
20260508103046 15 22 0.0 0.0 0.00 0.00 0.00 69 1018.6
20260508102524 15 90 3.2 3.2 0.00 0.00 0.00 67 1018.6
20260508102002 15 90 6.4 6.4 0.00 0.00 0.00 67 1018.6
20260508101439 15 68 0.0 0.0 0.00 0.00 0.00 68 1018.6
20260508100917 15 135 1.6 1.6 0.00 0.00 0.00 67 1018.7
20260508100355 15 90 0.0 0.0 0.00 0.00 0.00 69 1018.7
20260508095833 15 248 0.0 0.0 0.00 0.00 0.00 68 1018.6
20260508095311 15 112 3.2 3.2 0.00 0.00 0.00 67 1018.6
20260508094749 15 202 0.0 0.0 0.00 0.00 0.00 70 1018.5
20260508094227 15 90 3.2 3.2 0.00 0.00 0.00 69 1018.5
20260508093705 15 90 0.0 0.0 0.00 0.00 0.00 71 1018.5
20260508093143 15 90 8.0 8.0 0.00 0.00 0.00 69 1018.5
20260508092621 15 0 0.0 0.0 0.00 0.00 0.00 74 1018.4
20260508092059 15 68 6.4 6.4 0.00 0.00 0.00 73 1018.4
20260508091537 15 68 4.8 4.8 0.00 0.00 0.00 74 1018.4
20260508091015 15 90 3.2 3.2 0.00 0.00 0.00 72 1018.5
20260508090453 15 68 0.0 0.0 0.00 0.00 0.00 72 1018.5
20260508085656 13 112 0.0 0.0 0.00 0.00 0.00 75 1018.5
20260508084625 13 292 0.0 0.0 0.00 0.00 0.00 76 1018.5
20260508084103 13 45 4.8 4.8 0.00 0.00 0.00 76 1018.5
20260508083539 13 68 1.6 1.6 0.00 0.00 0.00 74 1018.5
20260508083017 13 68 6.4 6.4 0.00 0.00 0.00 73 1018.6
20260508082454 13 90 8.0 8.0 0.00 0.00 0.00 76 1018.6
20260508081932 13 112 3.2 3.2 0.00 0.00 0.00 76 1018.6
20260508081410 13 90 0.0 0.0 0.00 0.00 0.00 76 1018.5
20260508080848 13 90 0.0 0.0 0.00 0.00 0.00 75 1018.5
20260508080326 13 90 0.0 0.0 0.00 0.00 0.00 75 1018.5
20260508075804 13 68 0.0 0.0 0.00 0.00 0.00 76 1018.5
20260508075241 12 68 0.0 0.0 0.00 0.00 0.00 75 1018.5
20260508074719 11 68 0.0 0.0 0.00 0.00 0.00 76 1018.5
20260508073649 11 68 0.0 0.0 0.00 0.00 0.00 80 1018.4
20260508073127 11 90 4.8 4.8 0.00 0.00 0.00 82 1018.4
20260508072604 11 90 6.4 6.4 0.00 0.00 0.00 81 1018.4
20260508072042 11 90 0.0 0.0 0.00 0.00 0.00 82 1018.3
20260508071520 11 90 0.0 0.0 0.00 0.00 0.00 82 1018.3
20260508070958 10 90 0.0 0.0 0.00 0.00 0.00 85 1018.2
20260508070436 10 90 0.0 0.0 0.00 0.00 0.00 87 1018.2
20260508065914 10 90 0.0 0.0 0.00 0.00 0.00 87 1018.2
20260508065352 10 90 0.0 0.0 0.00 0.00 0.00 87 1018.1
20260508064830 10 90 0.0 0.0 0.00 0.00 0.00 87 1018.1
20260508064308 10 90 0.0 0.0 0.00 0.00 0.00 86 1018.0
20260508063747 10 90 0.0 0.0 0.00 0.00 0.00 86 1018.0
20260508063225 9 90 0.0 0.0 0.00 0.00 0.00 86 1018.0
20260508062703 9 90 0.0 0.0 0.00 0.00 0.00 86 1017.9
20260508061906 8 90 0.0 0.0 0.00 0.00 0.00 89 1017.8
20260508061344 8 90 0.0 0.0 0.00 0.00 0.00 90 1017.8
20260508060822 8 90 0.0 0.0 0.00 0.00 0.00 90 1017.7
20260508060300 8 90 0.0 0.0 0.00 0.00 0.00 90 1017.7
20260508055738 8 90 0.0 0.0 0.00 0.00 0.00 90 1017.7
20260508055216 8 90 0.0 0.0 0.00 0.00 0.00 91 1017.6
20260508054654 7 90 0.0 0.0 0.00 0.00 0.00 92 1017.6
20260508054133 7 90 0.0 0.0 0.00 0.00 0.00 92 1017.5
20260508053611 7 90 0.0 0.0 0.00 0.00 0.00 93 1017.5
20260508053049 7 90 0.0 0.0 0.00 0.00 0.00 93 1017.5
20260508052527 7 90 0.0 0.0 0.00 0.00 0.00 93 1017.4
20260508052006 6 90 0.0 0.0 0.00 0.00 0.00 93 1017.4
20260508051443 6 90 0.0 0.0 0.00 0.00 0.00 92 1017.3
20260508050647 6 90 0.0 0.0 0.00 0.00 0.00 92 1017.3
20260508050125 7 90 0.0 0.0 0.00 0.00 0.00 92 1017.3
20260508045603 7 90 0.0 0.0 0.00 0.00 0.00 92 1017.3
20260508045041 6 90 0.0 0.0 0.00 0.00 0.00 93 1017.2
20260508044246 6 90 0.0 0.0 0.00 0.00 0.00 93 1017.2
20260508043724 6 90 0.0 0.0 0.00 0.00 0.00 92 1017.2
20260508042928 6 90 0.0 0.0 0.00 0.00 0.00 92 1017.2
20260508042406 6 90 0.0 0.0 0.00 0.00 0.00 92 1017.2
20260508041844 6 90 0.0 0.0 0.00 0.00 0.00 91 1017.2
20260508041049 7 90 0.0 0.0 0.00 0.00 0.00 91 1017.2
20260508040528 7 90 0.0 0.0 0.00 0.00 0.00 91 1017.1
20260508040006 7 90 0.0 0.0 0.00 0.00 0.00 91 1017.1
20260508035444 7 90 3.2 3.2 0.00 0.00 0.00 91 1017.1
20260508034922 7 68 0.0 0.0 0.00 0.00 0.00 90 1017.0
20260508034400 7 68 0.0 0.0 0.00 0.00 0.00 90 1017.0
20260508033838 7 112 0.0 0.0 0.00 0.00 0.00 90 1016.9
20260508033041 7 90 0.0 0.0 0.00 0.00 0.00 90 1017.0
20260508032519 7 68 0.0 0.0 0.00 0.00 0.00 89 1017.0
20260508031957 7 68 0.0 0.0 0.00 0.00 0.00 88 1016.9
20260508031436 8 270 4.8 4.8 0.00 0.00 0.00 87 1016.9
20260508030914 8 112 0.0 0.0 0.00 0.00 0.00 85 1016.8
20260508030352 8 112 0.0 0.0 0.00 0.00 0.00 85 1016.8
20260508025830 8 202 0.0 0.0 0.00 0.00 0.00 84 1016.8
20260508025309 8 202 0.0 0.0 0.00 0.00 0.00 85 1016.7
20260508024747 8 90 0.0 0.0 0.00 0.00 0.00 86 1016.8
20260508023951 8 90 0.0 0.0 0.00 0.00 0.00 85 1016.8
20260508023429 8 90 0.0 0.0 0.00 0.00 0.00 85 1016.8
20260508022907 8 90 0.0 0.0 0.00 0.00 0.00 85 1016.7
20260508022345 8 90 0.0 0.0 0.00 0.00 0.00 85 1016.8
20260508021824 8 112 3.2 3.2 0.00 0.00 0.00 85 1016.8
20260508021302 8 90 6.4 6.4 0.00 0.00 0.00 85 1016.7
20260508020740 8 112 4.8 3.2 0.00 0.00 0.00 84 1016.7
20260508015943 8 112 8.0 8.0 0.00 0.00 0.00 85 1016.7
20260508015421 8 90 3.2 3.2 0.00 0.00 0.00 86 1016.7
20260508014626 8 90 4.8 4.8 0.00 0.00 0.00 87 1016.7
20260508014105 8 112 3.2 3.2 0.00 0.00 0.00 84 1016.7
20260508013308 8 112 3.2 3.2 0.00 0.00 0.00 85 1016.7
20260508012746 8 112 8.0 8.0 0.00 0.00 0.00 84 1016.7
20260508011949 8 112 8.0 8.0 0.00 0.00 0.00 86 1016.8
20260508011428 7 90 3.2 3.2 0.00 0.00 0.00 87 1016.8
20260508010906 7 68 3.2 3.2 0.00 0.00 0.00 87 1016.8
20260508010345 8 112 3.2 3.2 0.00 0.00 0.00 87 1016.9
20260508005823 8 112 0.0 0.0 0.00 0.00 0.00 85 1016.9
20260508005305 8 292 0.0 0.0 0.00 0.00 0.00 83 1016.9
20260508004506 9 270 0.0 0.0 0.00 0.00 0.00 82 1016.9
20260508003944 10 292 0.0 0.0 0.00 0.00 0.00 80 1016.9
20260508003148 10 292 0.0 0.0 0.00 0.00 0.00 79 1016.9
20260508002626 10 292 3.2 3.2 0.00 0.00 0.00 77 1016.9
20260508002104 11 135 0.0 3.2 0.00 0.00 0.00 77 1016.9
20260508001543 11 315 0.0 0.0 0.00 0.00 0.00 76 1016.9
20260508001021 11 202 0.0 0.0 0.00 0.00 0.00 76 1016.9
20260508000459 11 202 0.0 0.0 0.00 0.00 0.00 76 1016.9
20260507235938 11 292 3.2 3.2 0.00 0.00 0.00 76 1016.9
20260507235417 10 292 4.8 1.6 0.00 0.00 0.00 77 1016.8
20260507234751 10 135 0.0 0.0 0.00 0.00 0.00 77 1016.8
20260507234230 11 158 0.0 0.0 0.00 0.00 0.00 77 1016.9
20260507233434 11 135 1.6 1.6 0.00 0.00 0.00 77 1016.8
20260507232913 11 135 0.0 0.0 0.00 0.00 0.00 77 1016.8
20260507232351 10 68 0.0 0.0 0.00 0.00 0.00 77 1016.8
20260507231556 11 112 3.2 3.2 0.00 0.00 0.00 77 1016.8
20260507231035 11 158 0.0 0.0 0.00 0.00 0.00 77 1016.8
20260507230514 10 22 0.0 0.0 0.00 0.00 0.00 77 1016.8
20260507225953 10 45 0.0 0.0 0.00 0.00 0.00 78 1016.8
20260507225431 10 45 0.0 0.0 0.00 0.00 0.00 78 1016.8
20260507224910 10 22 0.0 0.0 0.00 0.00 0.00 78 1016.8
20260507224349 10 22 0.0 0.0 0.00 0.00 0.00 77 1016.8
20260507223828 11 22 0.0 0.0 0.00 0.00 0.00 77 1016.8
20260507223033 11 22 0.0 0.0 0.00 0.00 0.00 76 1016.7
20260507222511 11 22 3.2 3.2 0.00 0.00 0.00 77 1016.7
20260507221950 11 22 3.2 3.2 0.00 0.00 0.00 77 1016.7
20260507221429 11 22 0.0 0.0 0.00 0.00 0.00 76 1016.8
20260507220908 11 22 0.0 0.0 0.00 0.00 0.00 75 1016.8
20260507220347 11 22 0.0 0.0 0.00 0.00 0.00 75 1016.7
20260507215318 11 22 3.2 3.2 0.00 0.00 0.00 75 1016.8
20260507214756 11 22 0.0 0.0 0.00 0.00 0.00 74 1016.8
20260507214235 11 22 0.0 0.0 0.00 0.00 0.00 73 1016.8
20260507213440 11 22 0.0 0.0 0.00 0.00 0.00 73 1016.8
20260507212919 11 22 0.0 0.0 0.00 0.00 0.00 73 1016.8
20260507212358 11 22 0.0 0.0 0.00 0.00 0.00 73 1016.7
20260507211837 11 22 0.0 0.0 0.00 0.00 0.00 73 1016.7
20260507211316 11 135 0.0 0.0 0.00 0.00 0.00 72 1016.7
20260507210520 11 202 0.0 0.0 0.00 0.00 0.00 72 1016.7
20260507205959 11 135 0.0 0.0 0.00 0.00 0.00 72 1016.7
20260507205437 11 112 0.0 0.0 0.00 0.00 0.00 71 1016.6
20260507204916 11 180 0.0 0.0 0.00 0.00 0.00 71 1016.6
20260507204355 11 112 0.0 0.0 0.00 0.00 0.00 72 1016.6
20260507203325 11 112 0.0 0.0 0.00 0.00 0.00 72 1016.5
20260507202804 11 112 0.0 0.0 0.00 0.00 0.00 72 1016.5
20260507202243 11 112 0.0 0.0 0.00 0.00 0.00 72 1016.4
20260507201447 11 112 3.2 3.2 0.00 0.00 0.00 73 1016.2
20260507200926 11 135 0.0 0.0 0.00 0.00 0.00 73 1016.2
20260507200131 11 135 0.0 0.0 0.00 0.00 0.00 72 1016.2
20260507195610 12 135 0.0 0.0 0.00 0.00 0.00 71 1016.1
20260507194541 12 135 0.0 0.0 0.00 0.00 0.00 70 1016.1
20260507194020 12 135 0.0 0.0 0.00 0.00 0.00 70 1016.1
20260507193459 12 135 0.0 0.0 0.00 0.00 0.00 70 1016.1
20260507192938 12 135 0.0 0.0 0.00 0.00 0.00 69 1016.0
20260507192417 12 135 0.0 0.0 0.00 0.00 0.00 68 1016.0
20260507191856 12 135 0.0 0.0 0.00 0.00 0.00 67 1015.9
20260507191335 12 135 0.0 0.0 0.00 0.00 0.00 67 1015.9
20260507190814 12 135 0.0 0.0 0.00 0.00 0.00 66 1015.8
20260507190253 12 112 0.0 0.0 0.00 0.00 0.00 66 1015.8
20260507185732 12 112 0.0 0.0 0.00 0.00 0.00 66 1015.8
20260507185211 12 135 0.0 0.0 0.00 0.00 0.00 66 1015.8
20260507184650 12 135 0.0 0.0 0.00 0.00 0.00 66 1015.8
20260507184128 13 135 3.2 3.2 0.00 0.00 0.00 65 1015.7
20260507183607 13 112 0.0 0.0 0.00 0.00 0.00 64 1015.7
20260507182539 13 90 1.6 1.6 0.00 0.00 0.00 64 1015.7
20260507182018 13 112 1.6 1.6 0.00 0.00 0.00 64 1015.7
20260507181456 13 202 0.0 0.0 0.00 0.00 0.00 64 1015.6
20260507180936 13 112 4.8 4.8 0.00 0.00 0.00 63 1015.6
20260507180415 13 90 3.2 3.2 0.00 0.00 0.00 64 1015.6
20260507175854 13 90 3.2 3.2 0.00 0.00 0.00 63 1015.6
20260507175332 13 158 0.0 0.0 0.00 0.00 0.00 65 1015.6
20260507174812 13 112 3.2 3.2 0.00 0.00 0.00 63 1015.6
20260507174251 13 112 0.0 0.0 0.00 0.00 0.00 64 1015.6
20260507173729 13 112 0.0 0.0 0.00 0.00 0.00 64 1015.6
20260507173208 13 90 0.0 0.0 0.00 0.00 0.00 65 1015.7
20260507172647 13 112 3.2 3.2 0.00 0.00 0.00 63 1015.7
20260507171852 13 112 8.0 8.0 0.00 0.00 0.00 62 1015.7
20260507171331 13 112 3.2 3.2 0.00 0.00 0.00 63 1015.7
20260507170810 13 112 3.2 3.2 0.00 0.00 0.00 63 1015.6
20260507170249 13 135 1.6 1.6 0.00 0.00 0.00 63 1015.6
20260507165728 13 112 3.2 3.2 0.00 0.00 0.00 62 1015.6
20260507165207 13 90 8.0 8.0 0.00 0.00 0.00 62 1015.7
20260507164646 13 112 0.0 0.0 0.00 0.00 0.00 63 1015.7
20260507164125 13 68 9.7 9.7 0.00 0.00 0.00 63 1015.8
20260507163604 13 135 4.8 4.8 0.00 0.00 0.00 62 1015.8
20260507163043 13 112 4.8 6.4 0.00 0.00 0.00 60 1015.8
20260507162248 13 112 3.2 3.2 0.00 0.00 0.00 64 1015.8
20260507161728 13 112 8.0 8.0 0.00 0.00 0.00 65 1015.8
20260507161207 13 90 6.4 8.0 0.00 0.00 0.00 67 1015.7
20260507160646 13 112 6.4 8.0 0.00 0.00 0.00 68 1015.8
20260507160125 13 90 6.4 8.0 0.00 0.00 0.00 66 1015.8
20260507155604 13 90 3.2 3.2 0.00 0.00 0.00 67 1015.8
20260507155043 13 90 4.8 4.8 0.00 0.00 0.00 63 1015.9
20260507154522 13 112 3.2 3.2 0.00 0.00 0.00 64 1015.9
20260507154000 13 112 3.2 3.2 0.00 0.00 0.00 64 1016.0
20260507153440 13 112 3.2 3.2 0.00 0.00 0.00 64 1016.0
20260507152919 13 112 4.8 6.4 0.00 0.00 0.00 64 1016.1
20260507152358 13 112 1.6 1.6 0.00 0.00 0.00 66 1016.1
20260507151837 13 90 0.0 0.0 0.00 0.00 0.00 68 1016.1
20260507151316 13 112 3.2 3.2 0.00 0.00 0.00 68 1016.1
20260507150520 13 90 3.2 3.2 0.00 0.00 0.00 68 1016.2
20260507145959 13 112 6.4 8.0 0.00 0.00 0.00 67 1016.2
20260507145439 13 112 3.2 3.2 0.00 0.00 0.00 68 1016.2
20260507144918 13 112 3.2 3.2 0.00 0.00 0.00 67 1016.3
20260507144357 13 90 3.2 3.2 0.00 0.00 0.00 67 1016.3
20260507143836 13 292 1.6 1.6 0.00 0.00 0.00 65 1016.4
20260507143315 13 112 3.2 3.2 0.00 0.00 0.00 65 1016.4
20260507142754 13 135 4.8 4.8 0.00 0.00 0.00 68 1016.4
20260507142233 13 112 3.2 3.2 0.00 0.00 0.00 70 1016.5
20260507141712 13 135 1.6 1.6 0.00 0.00 0.00 68 1016.6
20260507141152 13 90 8.0 8.0 0.00 0.00 0.00 69 1016.6
20260507140631 13 90 8.0 8.0 0.00 0.00 0.00 68 1016.7
20260507140110 13 112 4.8 4.8 0.00 0.00 0.00 67 1016.7
20260507135548 13 112 1.6 1.6 0.00 0.00 0.00 68 1016.8
20260507135027 12 135 3.2 3.2 0.00 0.00 0.00 68 1016.8
20260507134232 12 112 9.7 9.7 0.00 0.00 0.00 68 1016.9
20260507133711 13 90 8.0 8.0 0.00 0.00 0.00 68 1016.9
20260507132915 13 112 3.2 3.2 0.00 0.00 0.00 67 1017.0
20260507132120 12 112 4.8 6.4 0.00 0.00 0.00 67 1017.0
20260507131600 12 112 8.0 9.7 0.00 0.00 0.00 70 1017.0
20260507131039 12 68 3.2 3.2 0.00 0.00 0.00 71 1017.1
20260507130518 11 112 4.8 4.8 0.00 0.00 0.00 70 1017.1
20260507125723 11 90 4.8 4.8 0.00 0.00 0.00 74 1017.2
20260507125203 11 112 4.8 4.8 0.00 0.00 0.00 73 1017.2
20260507124642 11 112 4.8 4.8 0.00 0.00 0.00 77 1017.2
20260507124121 11 112 3.2 3.2 0.00 0.00 0.00 77 1017.2
20260507123600 10 112 1.6 1.6 0.00 0.00 0.00 76 1017.2
20260507123039 10 112 6.4 6.4 0.00 0.00 0.00 78 1017.2